Location: Lombard
(41.8800°N, 88.0080°W)
Time: 11:42:00
(UTC-05:00)

XW-2A - Visible Passes

Search period start: 17 May 2022 00:00
Search period end: 27 May 2022 00:00
Orbit: 404 x 416 km, 97.2° (Epoch: 17 May)

Date Brightness Start Highest point End Pass type
(mag) Time Alt. Az. Time Alt. Az. Time Alt. Az.
17 May ? 21:28:15 25° SE 21:29:44 43° ENE 21:32:49 10° N visible
18 May ? 20:42:05 10° E 20:43:02 11° ENE 20:44:00 10° NE visible
18 May ? 22:13:34 27° SW 22:14:39 36° W 22:17:40 10° NNW visible
19 May ? 21:26:00 22° SE 21:27:37 40° ENE 21:30:39 10° N visible
20 May ? 22:11:13 27° SSW 22:12:25 39° W 22:15:28 10° NNW visible
21 May ? 21:23:33 20° SE 21:25:18 37° ENE 21:28:18 10° N visible
22 May ? 22:08:40 27° SSW 22:10:00 43° W 22:13:05 10° NNW visible
23 May ? 21:20:56 18° SE 21:22:48 34° ENE 21:25:45 10° N visible
23 May ? 22:54:05 10° WSW 22:54:55 11° W 22:55:46 10° WNW visible
24 May ? 22:05:57 26° SSW 22:07:24 47° W 22:10:30 10° NNW visible
25 May ? 21:18:07 16° SE 21:20:08 31° ENE 21:23:00 10° N visible
25 May ? 22:50:58 10° WSW 22:52:12 12° W 22:53:26 10° WNW visible
26 May ? 22:03:03 26° SSW 22:04:36 52° W 22:07:44 10° NNW visible
